| time (UTC) | temp C | wind direction | speed KPH | gust KPH | rain 1hr cm | rain 24hr cm | rain mn cm | humidity % | barometer mb |
| 20260506061552 | 15 | 196 | 6.4 | 25.7 | 0.00 | 0.00 | 0.00 | 80 | 1009.4 |
| 20260506044538 | 15 | 268 | 6.4 | 22.5 | 0.00 | 0.00 | 0.00 | 76 | 1010.0 |
| 20260506043031 | 15 | 205 | 11.3 | 27.4 | 0.00 | 0.00 | 0.00 | 75 | 1010.0 |
| 20260506041528 | 15 | 194 | 4.8 | 16.1 | 0.00 | 0.00 | 0.00 | 74 | 1009.9 |
| 20260506040027 | 15 | 150 | 9.7 | 25.7 | 0.00 | 0.00 | 0.00 | 73 | 1009.9 |
| 20260506034522 | 15 | 173 | 6.4 | 27.4 | 0.00 | 0.00 | 0.00 | 72 | 1009.8 |
| 20260506033021 | 15 | 286 | 6.4 | 19.3 | 0.00 | 0.00 | 0.00 | 72 | 1009.6 |
| 20260506031520 | 15 | 162 | 4.8 | 24.1 | 0.00 | 0.00 | 0.00 | 71 | 1009.6 |
| 20260506030021 | 15 | 202 | 6.4 | 20.9 | 0.00 | 0.00 | 0.00 | 71 | 1009.4 |
| 20260506024520 | 15 | 168 | 8.0 | 24.1 | 0.00 | 0.00 | 0.00 | 71 | 1009.5 |
| 20260506023034 | 15 | 247 | 11.3 | 27.4 | 0.00 | 0.00 | 0.00 | 71 | 1009.4 |
| 20260506021531 | 15 | 200 | 6.4 | 32.2 | 0.00 | 0.00 | 0.00 | 71 | 1009.3 |
| 20260506020017 | 15 | 180 | 8.0 | 25.7 | 0.00 | 0.00 | 0.00 | 71 | 1009.4 |
| 20260506014619 | 15 | 211 | 6.4 | 17.7 | 0.00 | 0.00 | 0.00 | 71 | 1009.5 |
| 20260506013019 | 15 | 224 | 4.8 | 27.4 | 0.00 | 0.00 | 0.00 | 70 | 1009.4 |
| 20260506011515 | 15 | 188 | 4.8 | 17.7 | 0.00 | 0.00 | 0.00 | 71 | 1009.1 |
| 20260506010015 | 15 | 165 | 8.0 | 20.9 | 0.00 | 0.00 | 0.00 | 71 | 1009.1 |
| 20260506004515 | 15 | 198 | 4.8 | 16.1 | 0.00 | 0.00 | 0.00 | 71 | 1008.9 |
| 20260506003015 | 15 | 186 | 4.8 | 17.7 | 0.00 | 0.00 | 0.00 | 70 | 1008.8 |
| 20260506001513 | 16 | 204 | 4.8 | 19.3 | 0.00 | 0.00 | 0.00 | 68 | 1008.6 |
| 20260506000008 | 16 | 211 | 4.8 | 20.9 | 0.00 | 0.00 | 0.00 | 67 | 1008.1 |
| 20260505234513 | 16 | 200 | 4.8 | 22.5 | 0.00 | 0.00 | 0.00 | 66 | 1007.8 |
| 20260505233007 | 17 | 141 | 8.0 | 29.0 | 0.00 | 0.00 | 0.00 | 65 | 1007.7 |
| 20260505231507 | 17 | 150 | 8.0 | 35.4 | 0.00 | 0.00 | 0.00 | 64 | 1007.6 |
| 20260505230010 | 17 | 180 | 8.0 | 25.7 | 0.00 | 0.00 | 0.00 | 62 | 1007.0 |
| 20260505224505 | 18 | 131 | 9.7 | 29.0 | 0.00 | 0.00 | 0.00 | 59 | 1006.8 |
| 20260505223005 | 19 | 236 | 3.2 | 25.7 | 0.00 | 0.00 | 0.00 | 57 | 1006.9 |
| 20260505221504 | 20 | 197 | 12.9 | 32.2 | 0.00 | 0.00 | 0.00 | 54 | 1006.8 |
| 20260505220003 | 20 | 205 | 9.7 | 27.4 | 0.00 | 0.00 | 0.00 | 54 | 1006.6 |
| 20260505214502 | 20 | 192 | 9.7 | 33.8 | 0.00 | 0.00 | 0.00 | 55 | 1006.5 |
| 20260505213004 | 20 | 204 | 8.0 | 24.1 | 0.00 | 0.00 | 0.00 | 55 | 1006.5 |
| 20260505211502 | 21 | 185 | 14.5 | 30.6 | 0.00 | 0.00 | 0.00 | 52 | 1006.5 |
| 20260505210100 | 21 | 223 | 6.4 | 35.4 | 0.00 | 0.00 | 0.00 | 53 | 1006.3 |
| 20260505204600 | 22 | 156 | 11.3 | 25.7 | 0.00 | 0.00 | 0.00 | 51 | 1006.5 |
| 20260505203121 | 22 | 190 | 3.2 | 22.5 | 0.00 | 0.00 | 0.00 | 50 | 1006.4 |
| 20260505201604 | 22 | 181 | 9.7 | 30.6 | 0.00 | 0.00 | 0.00 | 48 | 1006.7 |
| 20260505200059 | 23 | 221 | 8.0 | 25.7 | 0.00 | 0.00 | 0.00 | 47 | 1006.4 |
| 20260505194556 | 23 | 169 | 8.0 | 41.8 | 0.00 | 0.00 | 0.00 | 45 | 1006.5 |
| 20260505193056 | 24 | 189 | 9.7 | 24.1 | 0.00 | 0.00 | 0.00 | 45 | 1006.5 |
| 20260505191605 | 25 | 212 | 6.4 | 32.2 | 0.00 | 0.00 | 0.00 | 43 | 1006.5 |
| 20260505190055 | 25 | 144 | 8.0 | 25.7 | 0.00 | 0.00 | 0.00 | 45 | 1006.7 |
| 20260505184552 | 25 | 171 | 9.7 | 32.2 | 0.00 | 0.00 | 0.00 | 44 | 1006.8 |
| 20260505183049 | 24 | 180 | 11.3 | 37.0 | 0.00 | 0.00 | 0.00 | 45 | 1007.1 |
| 20260505181550 | 25 | 185 | 9.7 | 27.4 | 0.00 | 0.00 | 0.00 | 44 | 1007.3 |
| 20260505180051 | 25 | 223 | 11.3 | 32.2 | 0.00 | 0.00 | 0.00 | 46 | 1007.3 |
| 20260505174547 | 24 | 169 | 8.0 | 33.8 | 0.00 | 0.00 | 0.00 | 49 | 1007.7 |
| 20260505173049 | 24 | 233 | 9.7 | 24.1 | 0.00 | 0.00 | 0.00 | 46 | 1007.8 |
| 20260505171548 | 25 | 215 | 8.0 | 32.2 | 0.00 | 0.00 | 0.00 | 47 | 1007.6 |
| 20260505164543 | 25 | 178 | 4.8 | 16.1 | 0.00 | 0.00 | 0.00 | 46 | 1008.0 |
| 20260505163041 | 25 | 190 | 4.8 | 19.3 | 0.00 | 0.00 | 0.00 | 47 | 1008.2 |
| 20260505161535 | 24 | 222 | 3.2 | 14.5 | 0.00 | 0.00 | 0.00 | 49 | 1008.5 |
| 20260505153024 | 22 | 196 | 4.8 | 12.9 | 0.00 | 0.00 | 0.00 | 56 | 1008.5 |
| 20260505151521 | 21 | 200 | 4.8 | 12.9 | 0.00 | 0.00 | 0.00 | 56 | 1008.7 |
| 20260505124549 | 16 | 225 | 6.4 | 37.0 | 0.00 | 0.00 | 0.00 | 70 | 1009.3 |
| 20260505123044 | 16 | 202 | 4.8 | 17.7 | 0.00 | 0.00 | 0.00 | 72 | 1009.1 |
| 20260505121541 | 15 | 181 | 3.2 | 14.5 | 0.00 | 0.00 | 0.00 | 75 | 1009.2 |
| 20260505120039 | 14 | 234 | 3.2 | 16.1 | 0.00 | 0.00 | 0.00 | 77 | 1009.2 |
| 20260505114533 | 13 | 183 | 4.8 | 17.7 | 0.00 | 0.00 | 0.00 | 80 | 1009.1 |
| 20260505113027 | 12 | 200 | 3.2 | 16.1 | 0.00 | 0.00 | 0.00 | 83 | 1009.2 |
| 20260505111522 | 12 | 211 | 6.4 | 19.3 | 0.00 | 0.00 | 0.00 | 85 | 1009.2 |
| 20260505101514 | 10 | 132 | 3.2 | 16.1 | 0.00 | 0.00 | 0.00 | 88 | 1009.2 |
| 20260505100008 | 10 | 194 | 1.6 | 11.3 | 0.00 | 0.00 | 0.00 | 87 | 1009.1 |
| 20260505094505 | 10 | 204 | 3.2 | 11.3 | 0.00 | 0.00 | 0.00 | 87 | 1009.4 |
| 20260505093011 | 10 | 147 | 1.6 | 12.9 | 0.00 | 0.00 | 0.00 | 86 | 1009.4 |
| 20260505091502 | 10 | 174 | 1.6 | 11.3 | 0.00 | 0.00 | 0.00 | 86 | 1009.4 |
| 20260505090108 | 10 | 221 | 1.6 | 11.3 | 0.00 | 0.00 | 0.00 | 86 | 1009.6 |
| 20260505084600 | 10 | 163 | 1.6 | 9.7 | 0.00 | 0.00 | 0.00 | 86 | 1009.4 |
| 20260505083105 | 10 | 150 | 1.6 | 9.7 | 0.00 | 0.00 | 0.00 | 85 | 1009.3 |
| 20260505081558 | 10 | 186 | 0.0 | 11.3 | 0.00 | 0.00 | 0.00 | 85 | 1009.5 |
| 20260505080056 | 10 | 213 | 1.6 | 12.9 | 0.00 | 0.00 | 0.00 | 85 | 1009.5 |
| 20260505074554 | 10 | 215 | 1.6 | 12.9 | 0.00 | 0.00 | 0.00 | 85 | 1009.6 |
| 20260505073057 | 10 | 149 | 1.6 | 11.3 | 0.00 | 0.00 | 0.00 | 84 | 1009.6 |
| 20260505071555 | 10 | 129 | 0.0 | 14.5 | 0.00 | 0.00 | 0.00 | 84 | 1009.6 |
| 20260505070051 | 10 | 196 | 1.6 | 16.1 | 0.00 | 0.00 | 0.00 | 84 | 1009.6 |